Regional Weather Roundup
Issued by NWS

Home | Current Version | Previous Version | Graphics & Text | Print | Product List | Glossary On
Versions: 1 2 3 4 5 6 7 8 9 10 11 12 13 14 15 16 17 18 19 20 21 22 23 24 25 26 27 28 29 30 31 32 33 34 35 36 37 38 39 40 41 42 43 44 45 46 47 48 49 50
000
ASUS43 KDMX 251006
RWRIA

WEATHER ROUNDUP FOR IOWA
NATIONAL WEATHER SERVICE DES MOINES IA
500 AM CDT THU MAY 25 2017

NOTE: "FAIR" INDICATES FEW OR NO CLOUDS BELOW 12,000 FEET WITH NO
SIGNIFICANT WEATHER AND/OR OBSTRUCTIONS TO VISIBILITY.

* - THESE STATIONS ARE NOT NWS STATIONS...THUS NOT UNDER NWS
QUALITY CONTROL.  THEY ALSO DO NOT REPORT WEATHER SUCH
AS PRECIPITATION OR FOG.

IAZ001>003-012>014-020>022-031>034-043>046-251100-
   NORTHWEST IOWA

CITY           SKY/WX    TMP DP  RH WIND       PRES   REMARKS
CARROLL *      CLEAR     45  45 100 CALM      29.68S
DENISON *      PTCLDY    50  46  87 SE3       29.67F
LE MARS *      PTCLDY    50  46  87 SE10G16   29.62F
ORANGE CITY *  PTCLDY    48  46  93 SE6       29.62F
SHELDON *      PTCLDY    48  45  87 SE10      29.62F
SIOUX CITY     CLEAR     49  47  93 SE10      29.62S
SPENCER        CLEAR     46  45  96 S7        29.67S
$$

IAZ055>058-069>071-079>083-090>094-251100-
   SOUTHWEST IOWA

CITY           SKY/WX    TMP DP  RH WIND       PRES   REMARKS
ATLANTIC *     CLEAR     46  46 100 CALM      29.69R
AUDUBON *      CLEAR     39  37  93 CALM      29.68F
CLARINDA *     CLEAR     43  43 100 CALM      29.71S
COUNCIL BLFS * CLEAR     48  48 100 SE6       29.65F
CRESTON *      CLEAR     46  46 100 CALM      29.70S
HARLAN  *      MOCLDY    46  46 100 CALM      29.71S
LAMONI         CLEAR     47  46  97 CALM      29.69S
RED OAK *      CLEAR     46  45  93 CALM      29.68S
SHENANDOAH *   CLEAR     48  46  93 CALM      29.68S
$$

IAZ047>049-059>061-072>074-084-251100-
   CENTRAL IOWA

CITY           SKY/WX    TMP DP  RH WIND       PRES   REMARKS
AMES           CLEAR     43  43 100 CALM      29.69R
ANKENY *       FOG       43  43 100 CALM      29.70R VSB 1/2
BOONE *        CLEAR     48  48 100 SE3       29.69R
CHARITON *     CLEAR     45  43  93 W5        29.69R
DES MOINES     PTCLDY    47  44  90 CALM      29.69R
GRINNELL*      CLEAR     44  43  97 CALM      29.71R FOG
KNOXVILLE *    CLEAR     45  43  93 CALM      29.68R
MARSHALLTOWN   FOG       41  41 100 W6        29.69R VSB 1/4
NEWTON *       CLEAR     45  45 100 CALM      29.69R
PELLA *        CLEAR     45  45  98 CALM      29.70R
PERRY *          N/A     46  45  97 W3        29.69R FOG
$$

IAZ004>006-015-016-023>025-035-036-251100-
   NORTH CENTRAL IOWA

CITY           SKY/WX    TMP DP  RH WIND       PRES   REMARKS
ALGONA *       CLEAR     48  48 100 SE6       29.69R
CLARION *      CLEAR     46  46 100 S6        29.69R
ESTHERVILLE    CLEAR     43  43 100 S6        29.68R
FORT DODGE *   CLEAR     45  43  93 E3        29.69R
MASON CITY     FOG       41  40  96 E5        29.71R VSB 1/4
FOREST CITY *  HAZE      43  34  70 CALM      29.70R VSB 1/4
WEBSTER CITY * CLEAR     45  45 100 SE6       29.67R
IOWA FALLS *   FOG       46  45  97 CALM      29.71R VSB 1/2
$$

IAZ007>011-017>019-026>030-037>042-050>054-066-251100-
   NORTHEAST IOWA

CITY           SKY/WX    TMP DP  RH WIND       PRES   REMARKS
CEDAR RAPIDS   CLEAR     46  46 100 N5        29.66S
CHARLES CITY * CLEAR     46  46 100 NE5       29.70R
CLINTON *      CLOUDY    53  51  93 N8        29.66R
DECORAH *      CLOUDY    48  48 100 CALM      29.68S
DUBUQUE        CLOUDY    51  49  92 N8        29.67S
MONTICELLO *   CLEAR     46  46 100 CALM      29.67R
OELWEIN *      CLEAR     45  43  93 NW5       29.69R FOG
WATERLOO       CLEAR     40  39  97 CALM      29.68S
$$

IAZ064-065-067-068-078-251100-
   EAST CENTRAL IOWA

CITY           SKY/WX    TMP DP  RH WIND       PRES   REMARKS
DAVENPORT      MOCLDY    52  49  89 N9        29.65S
IOWA CITY      CLEAR     48  46  93 W3        29.68S
MT. PLEASANT * CLEAR     48  48 100 CALM      29.67R
MUSCATINE *    PTCLDY    50  48  93 CALM      29.66S
QUAD CITIES    PTCLDY    53  49  86 N6        29.64S
$$

IAZ062-063-075>077-085>089-095>099-251100-
   SOUTHEAST IOWA

CITY           SKY/WX    TMP DP  RH WIND       PRES   REMARKS
BURLINGTON     CLEAR     50  48  93 NW3       29.66R
FAIRFIELD *    CLEAR     45  45 100 NW6       29.67R
FORT MADISON * CLEAR     48  48 100 CALM      29.67R
KEOKUK *       CLEAR     48  48 100 W3        29.67R
OSKALOOSA *      N/A     45  44  96 N6        29.69R
CENTERVILLE *    N/A     45  43  93 CALM      29.71
OTTUMWA        CLEAR     44  44 100 NW6       29.69R
WASHINGTON *   CLEAR     46  46 100 NW3       29.68R FOG
$$

ABBREVIATIONS USED IN REMARKS
   TC - TEMPERATURES IN CELSIUS
  WCI - WIND CHILL INDEX
   HX - HEAT INDEX
  VSB - VISIBILITY
$$





USA.gov is the U.S. government's official web portal to all federal, state and local government web resources and services.